Location: Taupo
(38.6830°S, 176.0830°E)
Time: 23:14:49
(UTC+13:00)

H-2A R/B - Pass Details

Date: 24 January 2019
Orbit: 258 x 32962 km, 27.9° (Epoch: 20 February)

Event Time Altitude Azimuth Distance (km) Brightness Sun altitude
Rises 22:05:36 0° 315° (NW) 2,359 4.6 -15.2°
Reaches altitude 10° 22:07:04 10° 330° (NNW) 1,858 3.9 -15.4°
Maximum altitude 22:10:28 28° 33° (NNE) 1,872 3.4 -15.9°
Drops below altitude 10° 22:22:09 10° 84° (E) 6,679 6.3 -17.6°
Sets 22:36:57 0° 90° (E) 12,141 7.7 -19.6°
